Hourly Weather Adamovo

Today, 7 March, Sunday

Time Temperature Precipitation Wind Pressure Humidity
00:00 -9°C° 0.4 mm 6 mps 735 mmHg 92%
01:00 -9°C° 0.4 mm 6 mps 734 mmHg 92%
02:00 -8°C° 0 mm 6 mps 732 mmHg 93%
03:00 -6°C° 0.7 mm 6 mps 731 mmHg 93%
04:00 -6°C° 0.7 mm 5 mps 729 mmHg 94%
05:00 -6°C° 0.7 mm 5 mps 728 mmHg 94%
06:00 -6°C° 0.8 mm 6 mps 727 mmHg 93%
07:00 -6°C° 0.8 mm 6 mps 727 mmHg 91%
08:00 -6°C° 0 mm 6 mps 727 mmHg 89%
09:00 -6°C° 0.2 mm 6 mps 727 mmHg 78%
10:00 -8°C° 0.2 mm 6 mps 727 mmHg 68%
11:00 -8°C° 0.2 mm 6 mps 727 mmHg 57%
12:00 -8°C° 0.1 mm 6 mps 727 mmHg 58%
13:00 -8°C° 0.1 mm 6 mps 728 mmHg 59%
14:00 -8°C° 0 mm 6 mps 727 mmHg 60%
15:00 -8°C° 0.1 mm 5 mps 727 mmHg 65%
16:00 -9°C° 0.1 mm 4 mps 728 mmHg 71%
17:00 -9°C° 0.1 mm 3 mps 728 mmHg 76%
18:00 -9°C° 0 mm 3 mps 728 mmHg 80%
19:00 -10°C° 0 mm 3 mps 728 mmHg 85%
20:00 -10°C° 0 mm 3 mps 728 mmHg 89%
21:00 -10°C° 0.3 mm 3 mps 728 mmHg 91%
22:00 -10°C° 0.3 mm 3 mps 728 mmHg 92%
23:00 -10°C° 0.3 mm 3 mps 728 mmHg 93%

Tomorrow, 8 March, Monday

Time Temperature Precipitation Wind Pressure Humidity
00:00 -10°C° 0.2 mm 3 mps 729 mmHg 94%
01:00 -12°C° 0.2 mm 3 mps 729 mmHg 94%
02:00 -12°C° 0.2 mm 3 mps 730 mmHg 94%
03:00 -13°C° 0 mm 3 mps 731 mmHg 94%
04:00 -14°C° 0 mm 3 mps 731 mmHg 94%
05:00 -14°C° 0 mm 3 mps 732 mmHg 93%
06:00 -15°C° 0.1 mm 4 mps 733 mmHg 92%
07:00 -14°C° 0.1 mm 4 mps 734 mmHg 90%
08:00 -14°C° 0.1 mm 4 mps 735 mmHg 89%
09:00 -14°C° 0 mm 4 mps 736 mmHg 87%
10:00 -12°C° 0 mm 4 mps 737 mmHg 85%
11:00 -12°C° 0 mm 4 mps 738 mmHg 83%
12:00 -12°C° 0 mm 4 mps 739 mmHg 83%
13:00 -12°C° 0 mm 4 mps 739 mmHg 83%
14:00 -12°C° 0 mm 4 mps 740 mmHg 83%
15:00 -12°C° 0 mm 4 mps 741 mmHg 84%
16:00 -13°C° 0 mm 3 mps 741 mmHg 86%
17:00 -13°C° 0 mm 3 mps 742 mmHg 88%
18:00 -14°C° 0 mm 3 mps 743 mmHg 90%
19:00 -15°C° 0 mm 3 mps 743 mmHg 92%
20:00 -16°C° 0 mm 3 mps 744 mmHg 94%
21:00 -16°C° 0 mm 2 mps 744 mmHg 95%
22:00 -18°C° 0 mm 2 mps 745 mmHg 96%
23:00 -19°C° 0 mm 2 mps 745 mmHg 97%

Day after tomorrow, 9 March, Tuesday

Time Temperature Precipitation Wind Pressure Humidity
00:00 -20°C° 0 mm 2 mps 746 mmHg 97%
01:00 -21°C° 0 mm 2 mps 746 mmHg 97%
02:00 -23°C° 0 mm 2 mps 746 mmHg 97%
03:00 -24°C° 0 mm 2 mps 747 mmHg 97%
04:00 -21°C° 0 mm 1 mps 747 mmHg 97%
05:00 -22°C° 0 mm 1 mps 747 mmHg 97%
06:00 -22°C° 0 mm 1 mps 748 mmHg 96%
07:00 -21°C° 0 mm 1 mps 748 mmHg 95%
08:00 -21°C° 0 mm 1 mps 749 mmHg 93%
09:00 -19°C° 0 mm 1 mps 749 mmHg 88%
10:00 -17°C° 0 mm 1 mps 749 mmHg 83%
11:00 -16°C° 0 mm 1 mps 750 mmHg 78%
12:00 -17°C° 0 mm 2 mps 750 mmHg 77%
13:00 -16°C° 0 mm 2 mps 750 mmHg 76%
14:00 -15°C° 0 mm 2 mps 750 mmHg 76%
15:00 -16°C° 0 mm 2 mps 750 mmHg 80%
16:00 -15°C° 0 mm 1 mps 750 mmHg 84%
17:00 -16°C° 0 mm 1 mps 751 mmHg 89%
18:00 -17°C° 0 mm 1 mps 751 mmHg 91%
19:00 -19°C° 0 mm 1 mps 752 mmHg 93%
20:00 -20°C° 0 mm 1 mps 752 mmHg 95%
21:00 -21°C° 0 mm 1 mps 753 mmHg 95%
22:00 -22°C° 0 mm 1 mps 753 mmHg 95%
23:00 -22°C° 0 mm 1 mps 753 mmHg 95%

10 March, Wednesday

Time Temperature Precipitation Wind Pressure Humidity
00:00 -23°C° 0 mm 1 mps 753 mmHg 94%
01:00 -23°C° 0 mm 1 mps 754 mmHg 94%
02:00 -24°C° 0 mm 1 mps 754 mmHg 94%
03:00 -24°C° 0 mm 1 mps 754 mmHg 93%
04:00 -24°C° 0 mm 1 mps 754 mmHg 92%
05:00 -24°C° 0 mm 1 mps 754 mmHg 91%
06:00 -23°C° 0 mm 1 mps 755 mmHg 88%
07:00 -22°C° 0 mm 1 mps 755 mmHg 85%
08:00 -21°C° 0 mm 1 mps 756 mmHg 82%
09:00 -18°C° 0 mm 1 mps 756 mmHg 77%
10:00 -16°C° 0 mm 1 mps 756 mmHg 72%
11:00 -14°C° 0 mm 1 mps 756 mmHg 67%
12:00 -13°C° 0 mm 1 mps 756 mmHg 66%
13:00 -12°C° 0 mm 1 mps 756 mmHg 66%
14:00 -11°C° 0 mm 1 mps 756 mmHg 65%
15:00 -12°C° 0 mm 1 mps 756 mmHg 71%
16:00 -13°C° 0 mm 1 mps 756 mmHg 78%
17:00 -14°C° 0 mm 1 mps 756 mmHg 84%
18:00 -15°C° 0 mm 0 mps 756 mmHg 85%
19:00 -16°C° 0 mm 0 mps 756 mmHg 87%
20:00 -17°C° 0 mm 0 mps 756 mmHg 88%
21:00 -17°C° 0 mm 0 mps 756 mmHg 89%
22:00 -17°C° 0 mm 0 mps 757 mmHg 90%
23:00 -18°C° 0 mm 0 mps 757 mmHg 91%

11 March, Thursday

Time Temperature Precipitation Wind Pressure Humidity
00:00 -18°C° 0 mm 0 mps 757 mmHg 91%
01:00 -18°C° 0 mm 0 mps 757 mmHg 92%
02:00 -19°C° 0 mm 0 mps 757 mmHg 93%
03:00 -19°C° 0 mm 0 mps 757 mmHg 94%
04:00 -19°C° 0 mm 0 mps 757 mmHg 94%
05:00 -19°C° 0 mm 0 mps 757 mmHg 95%
06:00 -18°C° 0 mm 0 mps 757 mmHg 93%
07:00 -17°C° 0 mm 1 mps 757 mmHg 91%
08:00 -16°C° 0 mm 1 mps 757 mmHg 90%
09:00 -14°C° 0 mm 1 mps 757 mmHg 86%
10:00 -12°C° 0 mm 1 mps 757 mmHg 83%
11:00 -12°C° 0 mm 2 mps 756 mmHg 79%
12:00 -10°C° 0 mm 2 mps 756 mmHg 76%
13:00 -12°C° 0 mm 3 mps 756 mmHg 74%
14:00 -10°C° 0 mm 3 mps 755 mmHg 71%
15:00 -12°C° 0 mm 3 mps 755 mmHg 74%
16:00 -13°C° 0 mm 3 mps 754 mmHg 76%
17:00 -14°C° 0 mm 3 mps 754 mmHg 79%
18:00 -14°C° 0 mm 3 mps 754 mmHg 81%
19:00 -16°C° 0 mm 4 mps 753 mmHg 83%
20:00 -17°C° 0 mm 4 mps 753 mmHg 85%
21:00 -17°C° 0 mm 4 mps 753 mmHg 85%
22:00 -17°C° 0 mm 4 mps 752 mmHg 86%
23:00 -18°C° 0 mm 4 mps 752 mmHg 86%

12 March, Friday

Time Temperature Precipitation Wind Pressure Humidity
00:00 -18°C° 0 mm 4 mps 751 mmHg 87%
01:00 -18°C° 0 mm 4 mps 751 mmHg 88%
02:00 -18°C° 0 mm 4 mps 750 mmHg 90%
03:00 -19°C° 0 mm 5 mps 749 mmHg 90%
04:00 -19°C° 0 mm 5 mps 749 mmHg 90%
05:00 -19°C° 0 mm 5 mps 748 mmHg 90%
06:00 -18°C° 0 mm 5 mps 748 mmHg 87%
07:00 -17°C° 0 mm 6 mps 747 mmHg 84%
08:00 -16°C° 0 mm 6 mps 746 mmHg 80%
09:00 -15°C° 0 mm 6 mps 746 mmHg 79%
10:00 -14°C° 0 mm 7 mps 745 mmHg 77%
11:00 -13°C° 0 mm 7 mps 744 mmHg 76%
12:00 -12°C° 0.1 mm 7 mps 744 mmHg 79%
13:00 -12°C° 0.1 mm 7 mps 743 mmHg 83%
14:00 -11°C° 0.1 mm 7 mps 742 mmHg 87%
15:00 -11°C° 0.2 mm 7 mps 742 mmHg 88%
16:00 -11°C° 0.2 mm 7 mps 741 mmHg 89%
17:00 -9°C° 0.2 mm 7 mps 740 mmHg 90%
18:00 -9°C° 0.3 mm 6 mps 740 mmHg 91%
19:00 -8°C° 0.3 mm 6 mps 739 mmHg 92%
20:00 -8°C° 0.3 mm 6 mps 739 mmHg 93%
21:00 -7°C° 0.3 mm 5 mps 739 mmHg 93%
22:00 -7°C° 0.3 mm 5 mps 738 mmHg 93%
23:00 -7°C° 0.3 mm 5 mps 738 mmHg 92%
Show more